Location: Berg
(47.2344°N, 9.5296°E)
Time: 05:19:45
(UTC+00:00)

BEESAT 2 - Pass Details

Date: 04 December 2021
Orbit: 498 x 513 km, 64.9° (Epoch: 19 January)

Event Time Altitude Azimuth Distance (km) Brightness Sun altitude
Exits shadow 05:47:54 12° 320° (NW) 1,650 ? -10.4°
Maximum altitude 05:51:34 76° 235° (SW) 537 ? -9.8°
Drops below altitude 10° 05:55:27 10° 150° (SSE) 1,735 ? -9.2°
Sets 05:57:36 0° 149° (SSE) 2,614 ? -8.9°
